Location: Oshawa
(43.9000°N, 78.8670°W)
Time: 09:53:31
(UTC-04:00)

S-56A Canister/Altair - All Passes

Search period start: 01 August 2014 00:00
Search period end: 11 August 2014 00:00
Orbit: 633 x 2503 km, 38.9° (Epoch: 30 July)

Date Brightness Start Highest point End Pass type
(mag) Time Alt. Az. Time Alt. Az. Time Alt. Az.
01 Aug - 00:14:34 10° WSW 00:25:22 58° S 00:32:27 10° E visible
01 Aug - 02:21:00 10° W 02:29:35 56° SSW 02:35:18 10° ESE visible
01 Aug - 04:27:27 10° W 04:32:40 24° SW 04:36:45 10° SSE visible
01 Aug - 19:38:01 10° SSE 19:43:31 13° SE 19:48:30 10° ESE daylight
01 Aug - 21:36:38 10° SSW 21:48:05 35° SSE 21:56:34 10° E visible
01 Aug - 23:41:27 10° WSW 23:52:55 58° S 00:00:30 10° E visible
02 Aug - 01:47:59 10° W 01:57:21 59° S 02:03:29 10° ESE visible
02 Aug - 03:54:32 10° W 04:00:40 29° SSW 04:05:15 10° SSE visible
02 Aug - 19:06:56 10° SSE 19:10:56 12° SE 19:14:41 10° ESE daylight
02 Aug - 21:03:51 10° SSW 21:15:27 33° SSE 21:24:18 10° E visible
02 Aug - 23:08:19 10° WSW 23:20:24 57° SSE 23:28:30 10° E visible
03 Aug - 01:14:54 10° W 01:25:03 62° S 01:31:38 10° ESE visible
03 Aug - 03:21:35 10° W 03:28:37 34° SSW 03:33:40 10° SE visible
03 Aug - 20:31:09 10° SSW 20:42:47 32° SSE 20:51:56 10° E daylight
03 Aug - 22:35:12 10° WSW 22:47:49 55° SSE 22:56:27 10° E visible
04 Aug - 00:41:45 10° W 00:52:40 64° S 00:59:45 10° ESE visible
04 Aug - 02:48:34 10° W 02:56:31 40° SSW 03:02:02 10° SE visible
04 Aug - 19:58:33 10° SSW 20:10:04 30° SE 20:19:28 10° E daylight
04 Aug - 22:02:05 10° SW 22:15:10 54° SSE 22:24:21 10° E visible
05 Aug - 00:08:32 10° W 00:20:13 66° S 00:27:50 10° ESE visible
05 Aug - 02:15:30 10° W 02:24:22 45° SSW 02:30:20 10° SE visible
05 Aug - 04:23:42 10° WSW 04:26:50 13° SW 04:29:34 10° SSW night (unlit)
05 Aug - 19:26:03 10° SSW 19:37:21 28° SE 19:46:53 10° E daylight
05 Aug - 21:29:01 10° SW 21:42:27 52° SSE 21:52:11 10° E visible
05 Aug - 23:35:19 10° WSW 23:47:41 67° S 23:55:52 10° E visible
06 Aug - 01:42:22 10° W 01:52:07 50° SSW 01:58:36 10° SE visible
06 Aug - 03:50:07 10° W 03:54:52 17° SW 03:58:44 10° S visible
06 Aug - 18:53:43 10° S 19:04:37 25° SE 19:14:09 10° E daylight
06 Aug - 20:56:01 10° SW 21:09:41 50° SSE 21:19:56 10° E visible
06 Aug - 23:02:04 10° WSW 23:15:05 67° S 23:23:50 10° E visible
07 Aug - 01:09:11 10° W 01:19:49 55° SSW 01:26:48 10° ESE visible
07 Aug - 03:16:44 10° W 03:22:52 22° SW 03:27:34 10° S visible
07 Aug - 18:21:32 10° S 18:31:54 23° SE 18:41:16 10° E daylight
07 Aug - 20:23:05 10° SW 20:36:52 48° SSE 20:47:37 10° E daylight
07 Aug - 22:28:49 10° WSW 22:42:24 67° S 22:51:46 10° E visible
08 Aug - 00:35:58 10° W 00:47:25 59° SSW 00:54:57 10° ESE visible
08 Aug - 02:43:26 10° W 02:50:48 27° SW 02:56:12 10° SSE visible
08 Aug - 17:49:33 10° S 17:59:11 21° SE 18:08:10 10° E daylight
08 Aug - 19:50:14 10° SW 20:04:01 46° SSE 20:15:13 10° E daylight
08 Aug - 21:55:36 10° WSW 22:09:39 66° S 22:19:38 10° E visible
09 Aug - 00:02:42 10° W 00:14:56 63° SSW 00:23:02 10° ESE visible
09 Aug - 02:10:09 10° W 02:18:40 32° SW 02:24:43 10° SSE visible
09 Aug - 17:17:49 10° SSE 17:26:29 18° SE 17:34:49 10° E daylight
09 Aug - 19:17:29 10° SW 19:31:09 43° SSE 19:42:43 10° E daylight
09 Aug - 21:22:25 10° WSW 21:36:50 66° S 21:47:25 10° E visible
09 Aug - 23:29:25 10° W 23:42:22 66° S 23:51:04 10° ESE visible
10 Aug - 01:36:51 10° W 01:46:28 37° SW 01:53:08 10° SSE visible
10 Aug - 16:46:25 10° SSE 16:53:50 16° SE 17:01:07 10° E daylight
10 Aug - 18:44:51 10° SSW 18:58:16 41° SSE 19:10:07 10° E daylight
10 Aug - 20:49:17 10° WSW 21:03:57 64° SSE 21:15:09 10° E visible
10 Aug - 22:56:07 10° W 23:09:42 68° S 23:19:02 10° ESE visible
